Location: San Antonio
(29.4240°N, 98.4930°W)
Time: 23:31:23
(UTC-05:00)

Courier 1B - Pass Details

Date: 16 July 2024
Orbit: 962 x 1208 km, 28.3° (Epoch: 22 April)

Event Time Altitude Azimuth Distance (km) Brightness Sun altitude
Rises 18:25:42 0° 271° (W) 3,936 12.0 25.9°
Reaches altitude 10° 18:28:33 10° 271° (W) 2,940 11.8 25.3°
Maximum altitude 18:35:44 81° 185° (S) 1,055 8.1 23.7°
Drops below altitude 10° 18:42:29 10° 98° (E) 2,764 9.4 22.3°
Sets 18:45:05 0° 98° (E) 3,687 9.9 21.8°
